Location: Hicks
(37.9226°N, 89.9954°W)
Time: 08:37:03
(UTC+00:00)

Cosmos 1937 Rocket - Pass Details

Date: 14 December 2025
Orbit: 743 x 775 km, 74.0° (Epoch: 24 January)

Event Time Altitude Azimuth Distance (km) Brightness Sun altitude
Rises 23:19:48 0° 177° (S) 3,201 7.0 -7.6°
Reaches altitude 10° 23:22:16 10° 170° (S) 2,275 6.1 -8.0°
Maximum altitude 23:27:03 40° 102° (ESE) 1,104 4.0 -8.9°
Drops below altitude 10° 23:31:49 10° 34° (NE) 2,271 5.5 -9.8°
Enters shadow 23:32:44 - 31° (NNE) 2,607 5.8 -9.9°
